Temperature
22 21 21 22 27 29 28 27 28 27 26 25 25 25 25 24 24 22 19 19 19 18 18 18 19 19 19 19 19 19 19 19 19 19 19 19 18 18 18 18 18 18 18 18 18 18 18 18 18
21 21 22 26 29 28 27 28 27 26 25 24 24 24 24 22 21 20 19 18 19 19 18 18 19 19 19 19 19 19 19 19 19 19 19 18 18 18 18 18 18 18 18 18 18 18 18 18 18
21 22 25 29 29 28 27 28 27 26 25 25 24 23 23 21 20 19 19 18 19 18 18 18 19 19 19 19 19 19 19 19 19 18 18 18 18 18 18 18 18 18 18 18 18 18 18 18 18
22 24 27 29 28 28 28 28 27 26 25 25 25 24 21 20 20 19 19 19 19 18 18 18 19 19 19 19 19 19 19 19 18 18 18 18 18 18 18 18 18 18 18 18 18 18 18 18 18
23 28 30 29 28 28 29 28 27 27 26 25 25 24 21 19 19 19 19 19 19 19 18 18 19 19 19 19 19 18 19 19 18 18 18 18 18 18 18 18 18 18 18 18 18 18 18 18 18
27 30 30 29 28 28 29 28 27 27 26 25 25 24 20 19 19 19 19 19 19 19 19 18 19 19 19 19 19 19 19 18 18 18 18 18 18 18 18 18 18 18 18 18 18 18 18 18 18
29 30 30 29 29 28 28 28 28 27 26 25 24 24 21 19 19 19 19 19 19 19 19 18 18 18 19 19 19 19 18 18 18 18 18 18 18 18 18 18 18 18 18 18 18 18 18 18 18
28 31 30 30 29 28 28 27 27 27 26 24 24 24 21 19 19 19 19 19 18 18 19 18 18 18 18 18 19 19 18 18 18 18 18 18 18 18 18 18 18 18 18 18 18 18 18 18 18
28 31 30 30 29 29 28 28 26 25 25 24 24 24 22 19 19 19 19 19 18 18 18 18 18 18 18 18 18 18 18 18 18 18 18 18 18 17 18 18 18 18 18 18 18 18 18 18 18
30 31 30 30 30 30 28 28 27 26 26 24 23 22 20 19 19 20 20 19 19 19 19 18 18 18 18 18 18 18 18 18 18 17 18 18 17 18 18 18 18 18 18 18 18 18 18 18 18
31 30 30 30 29 29 29 28 27 27 27 25 23 21 20 20 20 20 20 20 20 19 19 19 18 18 18 18 18 18 18 18 18 18 18 18 18 18 18 18 18 18 18 18 18 18 18 18 18
30 30 30 30 29 29 29 28 27 27 26 25 23 22 21 21 21 20 20 20 20 19 19 19 18 18 18 18 18 18 18 18 18 18 18 18 18 18 18 18 18 18 18 18 18 18 18 18 18
31 30 29 29 29 28 28 28 27 26 25 24 23 22 22 21 21 21 20 20 19 19 19 19 18 18 18 18 18 18 18 18 18 18 18 18 18 18 18 18 18 18 18 18 18 18 18 18 18
30 30 30 29 29 28 29 28 27 26 24 24 23 22 22 22 21 21 20 20 19 19 19 19 19 19 19 19 18 18 18 18 18 18 18 18 18 18 18 18 18 18 18 18 18 18 18 18 18
30 30 31 30 29 29 29 29 28 26 24 24 23 23 22 22 21 21 20 20 20 19 19 19 19 19 19 19 18 18 18 18 18 18 18 18 18 18 18 18 18 18 18 18 18 18 18 18 18
31 31 31 30 30 29 30 29 28 26 25 25 24 23 22 22 21 21 20 20 20 19 19 19 19 19 19 19 19 18 18 18 18 18 18 18 18 18 18 18 18 18 18 18 18 18 18 18 18
31 31 31 30 30 30 30 30 29 26 26 25 24 24 23 22 22 21 21 20 20 19 19 19 19 19 19 19 19 18 18 18 18 18 18 18 18 18 18 18 18 18 18 18 18 18 18 18 18
31 31 31 31 31 31 31 30 29 27 27 26 25 24 23 23 22 21 21 20 20 20 20 19 19 19 19 19 19 18 18 18 18 18 18 18 18 18 18 18 18 18 18 18 18 18 18 18 18
31 31 31 31 31 31 31 30 30 28 27 27 26 25 24 23 23 22 21 21 20 20 20 20 19 19 19 19 19 19 19 19 18 19 18 18 18 18 18 18 18 18 18 18 18 18 18 18 18
31 31 31 31 31 30 31 31 30 29 28 27 26 26 25 24 23 22 21 21 21 20 20 20 20 19 19 19 19 19 19 19 19 19 18 18 18 18 18 18 18 18 18 18 18 18 18 18 18
31 31 31 31 30 31 31 30 30 30 28 27 27 26 26 25 24 23 22 21 21 21 20 20 20 20 19 19 19 19 19 19 19 19 18 18 18 18 18 18 18 18 18 18 18 18 18 18 18
31 32 31 31 30 31 31 30 30 30 29 29 28 27 26 25 24 23 22 22 21 21 20 20 20 20 20 19 19 19 19 19 19 19 19 19 18 18 18 18 18 18 18 18 18 18 18 18 18
31 31 31 31 31 31 31 30 31 31 30 29 29 27 27 26 25 24 23 22 22 21 21 20 20 20 20 20 19 19 19 19 19 19 19 19 18 18 18 18 18 18 18 18 18 18 18 18 18
31 31 30 31 31 30 30 30 30 31 30 30 29 27 26 26 25 24 23 23 22 21 21 20 20 20 20 20 19 19 19 19 19 19 19 19 19 19 18 18 18 18 18 18 18 18 18 18 18
31 30 30 30 30 30 30 30 30 30 30 29 29 27 26 26 25 24 24 23 22 22 21 20 20 20 20 20 20 20 19 19 19 19 19 19 19 19 19 18 18 18 18 18 18 18 18 18 18
31 31 30 29 29 30 30 30 30 30 29 28 28 27 26 26 25 24 23 23 22 22 21 20 20 20 20 20 20 20 19 19 19 19 18 18 18 18 18 18 18 18 18 18 18 18 18 18 18
31 31 32 31 30 30 30 30 30 30 29 28 28 27 26 25 25 24 23 23 22 21 21 20 20 20 20 20 20 20 19 19 19 18 18 18 18 18 18 18 18 18 18 18 18 18 18 18 18
31 31 31 30 29 29 29 30 30 29 28 28 28 27 26 25 24 24 23 22 22 22 21 20 20 20 20 19 19 19 19 19 19 18 18 18 18 18 18 18 18 18 18 18 18 18 17 17 17
30 30 30 30 30 29 29 29 30 29 28 28 27 26 25 25 24 23 23 22 22 21 21 20 20 20 20 20 19 19 19 19 19 18 18 18 18 18 18 18 18 18 18 17 18 17 17 17 17
30 30 30 29 29 29 29 29 29 29 28 27 27 25 24 24 24 23 22 22 22 21 21 20 20 20 20 20 19 19 19 19 18 18 18 18 18 18 18 18 18 17 17 17 17 17 17 17 17
Wind_Speed
9 6 4 4 3 6 11 9 8 8 7 7 8 6 7 7 6 8 8 10 11 12 13 14 13 14 14 14 15 15 15 15 14 14 13 13 13 13 13 12 12 12 12 12 11 11 10 10 9
5 3 4 3 2 9 11 9 10 10 8 7 7 7 7 8 8 9 9 10 11 12 12 13 14 13 14 14 14 14 14 14 13 13 13 12 12 12 12 12 12 12 11 11 11 10 9 9 8
4 5 3 2 9 11 10 9 10 10 8 6 5 6 5 6 7 7 10 12 11 12 12 14 13 13 13 13 13 13 13 13 12 12 12 11 12 11 12 11 11 10 10 10 9 9 9 8 8
3 4 1 7 13 12 10 9 9 9 7 6 6 7 6 6 5 9 13 12 12 11 12 14 12 12 12 12 12 12 12 12 12 12 11 10 10 10 10 10 10 9 9 9 8 8 7 7 6
4 1 6 11 13 11 9 8 6 6 6 6 6 8 8 6 9 13 12 12 11 11 12 13 12 11 11 11 11 11 11 11 11 11 10 9 9 9 9 9 9 8 7 7 7 7 6 5 5
2 1 7 11 12 10 9 7 6 8 8 7 8 9 7 8 11 12 12 10 10 10 11 12 11 10 10 10 10 10 10 10 10 10 9 8 8 7 7 7 7 6 6 6 5 5 5 4 4
2 5 9 11 10 9 8 6 6 6 8 7 6 8 7 9 11 12 11 10 9 9 9 10 11 11 10 9 9 9 9 9 9 9 8 8 7 6 6 6 6 5 5 5 4 4 4 3 3
2 2 8 9 9 9 7 6 6 6 8 7 4 6 8 11 12 11 11 10 9 8 8 8 9 9 9 10 9 8 8 7 7 7 7 7 7 6 5 5 6 4 4 4 4 3 3 3 3
2 3 8 8 7 7 7 6 6 6 8 6 5 7 13 16 14 12 11 10 9 8 7 7 7 8 7 8 9 8 8 7 7 8 7 5 4 5 5 6 5 3 3 3 3 3 3 4 6
1 7 10 7 6 6 6 6 6 6 8 8 9 12 15 15 14 12 11 11 11 10 8 6 6 7 6 6 7 6 6 6 4 5 4 4 3 3 3 6 4 3 3 4 4 4 6 7 5
5 8 7 6 6 5 6 6 5 5 6 7 10 14 16 15 13 12 10 10 11 10 8 7 6 6 5 5 5 4 3 4 4 4 3 3 2 3 3 3 4 3 4 2 4 4 2 2 1
5 6 5 5 4 4 5 6 6 5 6 7 11 15 16 14 13 11 11 9 9 9 9 7 6 5 4 3 3 3 3 3 3 4 2 2 1 1 2 1 1 0 1 1 0 0 0 0 1
5 5 5 4 4 5 6 6 6 6 7 9 12 14 14 14 12 11 10 9 8 9 8 7 6 5 4 3 2 3 3 3 3 3 3 1 1 1 1 1 1 1 1 0 0 1 1 1 2
4 4 4 5 6 5 6 6 5 6 8 10 13 13 13 12 12 11 11 10 9 8 8 7 7 6 5 4 3 2 3 3 3 3 2 2 1 1 0 1 0 1 1 1 1 1 1 1 1
3 4 5 5 4 5 5 5 5 8 9 11 12 12 12 11 12 11 11 11 10 9 9 8 8 7 6 5 4 3 3 4 3 2 2 2 2 1 1 1 1 1 1 1 2 2 2 2 2
4 3 4 5 3 3 4 5 6 8 10 10 11 11 11 11 11 11 11 10 10 10 10 9 8 8 7 5 4 4 4 3 3 2 3 3 2 3 3 2 1 1 2 2 1 2 2 1 2
4 1 3 4 2 2 3 3 7 8 9 10 10 11 11 11 11 11 11 11 10 10 10 9 8 7 7 6 5 4 3 3 3 3 4 3 3 3 4 2 1 3 2 2 2 1 2 2 2
1 1 1 1 2 3 3 2 6 9 9 9 10 10 11 12 12 12 12 11 11 10 10 9 9 8 7 6 5 4 4 4 4 4 3 4 4 4 4 3 3 3 2 2 2 2 2 2 3
4 3 2 1 1 3 3 3 4 8 9 9 10 11 11 11 12 12 12 12 12 11 11 10 10 9 7 6 5 5 5 4 4 4 4 5 5 4 4 4 2 3 2 2 3 2 2 2 2
5 4 2 2 1 3 3 3 4 7 9 10 10 11 12 11 11 12 12 13 13 13 12 11 10 9 8 6 5 4 3 3 3 3 3 5 5 5 5 4 4 3 2 3 2 2 3 2 2
6 5 3 2 2 5 4 4 5 7 8 8 9 10 11 11 12 13 13 13 13 13 13 11 11 10 9 8 6 4 4 4 4 4 4 4 5 5 5 5 4 3 4 3 3 2 3 3 2
6 3 4 4 5 3 3 4 3 5 7 8 9 10 10 11 12 12 14 14 14 14 13 11 10 10 9 9 8 8 6 5 4 4 3 4 5 5 5 5 5 5 4 3 4 2 3 4 3
4 2 4 6 6 6 5 6 1 4 3 4 6 8 9 10 12 12 13 13 13 13 12 11 11 10 10 9 9 8 7 6 4 4 4 4 4 5 5 5 5 5 5 4 4 3 4 4 4
4 5 5 7 7 7 5 6 3 1 1 0 2 5 8 9 10 11 11 11 12 12 12 11 11 10 9 10 9 9 8 7 6 5 4 5 4 4 5 5 5 6 5 4 5 5 5 4 5
8 8 6 7 6 5 1 5 2 2 2 2 1 3 6 8 9 9 10 11 11 12 12 11 11 10 10 10 9 9 8 8 7 6 5 5 4 4 5 5 5 5 5 5 5 5 5 6 6
9 10 7 7 6 4 4 4 1 3 2 2 1 2 4 6 7 8 9 9 10 11 11 11 10 10 10 9 9 8 8 7 6 6 6 5 5 5 4 5 6 6 6 6 5 5 5 5 6
8 9 8 9 9 8 5 3 2 0 1 2 3 3 4 5 6 6 7 8 9 10 10 10 10 9 8 8 8 7 7 7 6 6 6 6 5 5 5 5 6 6 6 6 6 5 6 5 6
6 6 7 9 8 9 7 6 3 1 1 1 2 3 3 4 5 6 7 7 8 9 10 10 9 8 7 6 6 5 6 6 6 6 6 6 6 5 5 6 6 6 6 6 6 6 6 6 6
7 8 8 8 8 9 8 3 1 1 1 1 2 3 3 4 5 6 6 6 7 7 8 8 8 8 7 7 6 5 5 5 5 5 5 5 5 5 6 6 6 6 6 6 5 6 6 6 7
9 9 10 9 8 9 10 4 3 2 1 1 2 3 3 4 4 5 5 6 6 7 7 7 7 7 7 7 6 6 5 5 5 5 5 5 5 5 5 5 6 6 6 6 6 6 6 6 7
Wind_Direction
192 196 222 241 207 87 74 72 77 84 79 74 71 69 69 52 49 90 111 118 119 122 121 119 111 111 109 109 109 111 111 111 109 110 110 107 107 107 107 106 108 108 108 109 109 110 111 110 109
181 200 234 241 80 85 75 75 77 74 91 101 83 74 75 67 68 103 122 123 127 123 121 116 113 111 110 109 109 109 110 109 110 110 109 108 107 107 107 106 105 107 108 109 110 112 112 110 107
196 236 266 67 63 71 79 80 88 90 93 104 95 68 60 75 93 112 125 132 127 119 116 114 116 113 112 111 110 110 109 110 111 112 111 110 108 108 108 107 107 108 110 110 110 113 112 108 105
228 224 205 81 77 70 80 88 100 103 91 90 104 91 78 67 97 118 130 134 127 124 120 116 117 114 114 113 113 112 109 109 109 111 113 113 111 110 109 108 108 107 107 108 111 115 114 111 110
243 235 99 85 79 77 78 85 93 91 94 101 104 99 89 79 104 122 132 132 130 126 120 121 119 117 116 115 114 112 109 109 110 113 114 113 112 110 110 109 109 107 105 107 110 114 116 116 113
244 126 85 82 83 84 83 85 89 89 98 104 107 104 91 111 122 128 132 134 131 127 124 123 122 118 117 117 116 115 113 110 110 115 115 113 113 112 109 111 110 109 108 107 109 118 123 124 119
18 70 81 84 89 87 80 79 76 92 101 99 109 106 114 127 130 133 135 133 130 128 126 130 135 132 129 122 118 116 113 112 112 115 116 117 117 115 113 112 111 108 109 109 111 117 123 133 139
325 94 91 84 82 83 92 90 82 88 93 103 107 119 135 140 140 138 136 134 133 134 130 135 135 134 138 134 127 123 118 115 117 123 122 125 132 132 135 135 110 108 114 116 117 121 139 165 172
264 91 74 69 73 91 109 103 93 100 113 103 86 100 128 140 144 142 141 141 144 144 142 139 138 137 137 133 134 140 139 138 154 145 146 166 140 126 144 97 101 106 119 131 141 160 180 204 189
38 65 63 58 75 101 113 106 115 123 121 112 108 111 129 144 149 150 150 151 151 151 150 147 147 140 139 133 135 147 148 139 145 121 131 131 109 112 115 120 137 135 144 165 169 196 205 222 187
56 62 67 70 83 104 116 113 121 125 112 126 138 141 147 153 157 157 155 155 152 152 155 158 151 146 148 142 143 141 133 133 138 120 123 118 135 145 131 129 154 160 181 162 154 197 209 213 208
77 66 65 76 89 107 111 114 109 91 85 119 140 149 155 160 164 163 160 158 155 156 161 161 154 154 157 146 146 153 145 146 140 135 163 141 122 109 93 105 61 131 118 63 357 215 126 257 232
83 75 70 85 98 105 116 112 107 102 103 125 138 152 160 164 167 167 164 162 164 166 166 164 161 160 165 169 188 156 166 172 157 153 161 182 157 118 109 82 6 323 15 199 275 342 32 292 249
77 89 101 105 108 123 122 118 117 115 128 136 148 159 165 167 170 170 173 175 177 178 175 173 177 176 180 185 187 175 179 181 182 174 173 200 187 139 153 166 146 324 325 342 307 327 288 286 293
130 124 120 113 120 130 147 123 109 131 145 150 156 163 168 172 175 178 181 183 182 183 184 184 184 183 186 189 191 182 198 187 193 176 180 210 211 179 241 223 213 248 278 275 271 301 288 271 258
188 183 124 113 134 162 236 101 126 148 159 161 163 167 173 177 181 184 185 186 186 184 185 190 190 184 187 195 201 194 203 201 207 204 201 210 216 216 247 250 240 246 256 260 260 272 286 289 286
199 186 105 124 156 188 233 101 137 162 172 170 173 174 179 181 187 187 189 188 189 187 187 189 193 190 192 192 198 206 204 214 218 213 224 211 218 220 243 261 275 256 267 287 287 327 294 287 292
232 282 150 127 152 220 229 139 150 173 185 183 183 184 187 188 191 189 191 190 190 189 190 192 193 194 194 193 197 207 216 214 216 223 225 229 227 223 246 239 248 267 268 282 293 299 283 284 284
292 277 264 108 151 244 241 228 178 179 193 193 193 193 193 194 190 188 191 193 192 191 192 193 196 190 193 196 203 206 209 214 215 223 226 235 239 229 239 262 237 262 264 288 291 284 265 271 296
251 254 240 167 146 268 270 248 191 187 200 203 202 201 199 193 188 190 193 195 196 195 195 194 196 194 197 199 207 213 219 224 227 231 225 238 241 239 229 236 252 245 248 250 276 277 287 282 274
242 256 270 270 236 230 267 220 185 188 198 204 209 207 204 199 194 192 196 197 197 197 197 198 198 198 202 202 202 206 210 225 224 220 221 233 241 245 253 246 256 257 257 250 257 264 269 283 273
242 248 259 248 249 254 265 278 163 180 190 202 207 206 206 201 200 197 196 197 199 198 196 196 195 199 200 200 207 213 220 228 232 237 229 233 236 244 245 244 246 255 259 251 253 245 261 265 273
262 250 246 252 258 268 250 274 181 163 186 198 207 208 207 203 201 199 199 197 198 195 192 192 193 198 199 202 205 214 227 230 230 231 227 237 230 235 245 243 242 244 253 254 265 263 261 257 268
196 208 219 240 253 259 266 269 276 92 359 331 196 202 203 201 197 195 194 191 192 189 189 188 189 194 197 201 205 212 223 229 233 234 236 233 226 228 235 242 241 243 247 242 245 248 243 254 262
212 233 240 238 237 253 223 262 297 22 8 341 308 193 195 192 190 187 187 186 186 186 187 186 187 192 195 201 206 209 217 223 227 234 235 246 247 239 233 241 238 245 242 243 249 245 251 243 243
230 249 259 270 272 263 210 252 344 31 21 13 67 137 168 179 180 178 181 184 184 184 185 185 187 192 195 200 206 211 217 224 227 228 242 242 253 254 248 244 242 242 242 243 242 249 243 239 242
231 241 265 269 272 274 259 250 241 72 67 69 83 104 142 162 167 168 171 178 180 181 182 185 185 190 195 198 201 211 216 227 236 238 238 244 245 247 239 242 241 242 241 244 245 248 248 245 245
261 247 244 256 265 269 258 250 259 229 232 110 86 91 113 150 163 165 167 169 176 179 179 184 185 188 193 197 202 202 213 223 233 242 246 252 250 251 250 245 242 242 242 242 245 250 246 245 247
209 225 242 254 263 271 273 260 60 190 183 158 110 91 106 137 152 159 163 167 169 174 175 179 181 182 188 198 201 204 205 212 221 231 240 244 249 245 244 246 248 247 247 246 245 251 252 250 252
237 237 234 246 252 257 271 265 110 134 124 129 110 97 109 129 142 150 151 157 165 168 171 176 182 186 190 191 195 205 205 208 216 221 229 237 243 248 246 246 247 248 248 247 248 254 258 255 256
Height
1508 1508 1508 1509 1503 1501 1507 1508 1506 1509 1513 1517 1518 1518 1519 1522 1524 1535 1538 1538 1539 1541 1542 1543 1544 1545 1546 1547 1547 1548 1549 1550 1551 1552 1553 1553 1554 1555 1555 1556 1557 1557 1558 1559 1560 1560 1561 1562 1562
1510 1509 1510 1507 1499 1508 1513 1508 1510 1513 1517 1520 1521 1522 1523 1527 1531 1535 1537 1539 1541 1543 1545 1546 1546 1547 1548 1549 1550 1551 1552 1552 1553 1554 1555 1555 1556 1557 1558 1558 1558 1559 1560 1560 1561 1562 1562 1563 1564
1510 1510 1510 1501 1502 1509 1514 1510 1513 1517 1520 1521 1523 1525 1527 1532 1535 1537 1539 1541 1543 1545 1547 1547 1548 1549 1550 1551 1552 1553 1554 1554 1555 1556 1557 1558 1558 1559 1560 1560 1560 1561 1561 1562 1563 1563 1564 1564 1565
1512 1512 1508 1503 1509 1509 1509 1511 1515 1518 1521 1523 1524 1527 1532 1536 1537 1538 1540 1543 1545 1547 1549 1549 1550 1551 1552 1553 1554 1555 1556 1556 1557 1558 1559 1560 1560 1561 1561 1562 1562 1563 1563 1564 1564 1565 1565 1566 1566
1513 1509 1503 1507 1510 1511 1511 1514 1516 1517 1521 1524 1525 1529 1534 1538 1538 1540 1542 1545 1547 1549 1551 1551 1552 1553 1554 1555 1556 1557 1558 1558 1559 1560 1561 1561 1562 1563 1563 1563 1564 1564 1565 1565 1565 1566 1566 1567 1567
1512 1504 1506 1513 1513 1512 1514 1517 1518 1519 1523 1526 1527 1530 1537 1540 1540 1542 1544 1547 1549 1551 1552 1553 1553 1554 1556 1557 1558 1558 1559 1560 1561 1561 1562 1563 1564 1564 1565 1565 1565 1566 1566 1566 1567 1567 1567 1568 1568
1511 1504 1508 1510 1513 1514 1516 1518 1519 1520 1523 1527 1529 1531 1538 1541 1543 1544 1546 1548 1550 1552 1554 1555 1556 1556 1557 1558 1559 1560 1561 1562 1562 1563 1564 1564 1565 1565 1566 1566 1567 1567 1567 1567 1568 1568 1568 1569 1569
1512 1505 1507 1508 1512 1516 1518 1520 1522 1523 1526 1530 1531 1532 1538 1542 1543 1545 1548 1549 1551 1553 1555 1556 1558 1559 1560 1561 1561 1562 1562 1563 1564 1564 1565 1565 1566 1567 1567 1568 1568 1568 1568 1568 1568 1569 1569 1569 1570
1512 1506 1510 1510 1512 1515 1518 1520 1524 1526 1528 1531 1532 1534 1538 1541 1544 1546 1548 1550 1551 1554 1556 1557 1559 1560 1562 1563 1562 1563 1564 1564 1565 1566 1566 1567 1569 1569 1569 1569 1569 1569 1569 1569 1569 1570 1570 1570 1570
1510 1507 1511 1511 1512 1514 1518 1521 1524 1526 1528 1531 1534 1537 1539 1542 1544 1546 1548 1550 1552 1554 1556 1558 1560 1561 1563 1564 1564 1565 1566 1566 1567 1568 1568 1569 1569 1570 1570 1569 1570 1570 1570 1570 1570 1570 1570 1571 1572
1511 1510 1511 1513 1515 1517 1519 1521 1523 1524 1526 1530 1534 1537 1540 1543 1545 1547 1549 1551 1553 1555 1557 1559 1560 1562 1563 1564 1565 1566 1567 1567 1568 1568 1569 1569 1570 1571 1571 1571 1571 1571 1571 1572 1571 1571 1572 1572 1572
1513 1513 1514 1515 1517 1518 1519 1522 1524 1525 1528 1531 1534 1537 1541 1543 1545 1548 1550 1551 1554 1555 1557 1559 1560 1562 1563 1564 1565 1566 1567 1568 1569 1568 1569 1570 1571 1571 1571 1571 1572 1572 1572 1571 1572 1571 1571 1571 1571
1513 1515 1517 1517 1518 1519 1521 1523 1525 1528 1531 1533 1535 1539 1541 1544 1546 1549 1551 1552 1554 1556 1558 1559 1561 1561 1563 1563 1565 1566 1567 1568 1569 1569 1569 1570 1571 1571 1571 1571 1571 1571 1571 1571 1571 1571 1571 1571 1571
1516 1516 1517 1518 1519 1521 1521 1524 1525 1530 1532 1534 1536 1539 1541 1544 1546 1548 1550 1552 1554 1556 1558 1559 1560 1562 1563 1564 1565 1566 1567 1568 1569 1569 1570 1570 1571 1571 1571 1571 1570 1571 1571 1571 1571 1571 1570 1571 1570
1517 1516 1515 1517 1518 1520 1520 1522 1524 1529 1532 1534 1536 1539 1541 1544 1546 1548 1550 1551 1553 1555 1557 1559 1560 1561 1562 1564 1565 1566 1567 1568 1569 1570 1570 1570 1571 1570 1570 1571 1570 1570 1570 1570 1570 1570 1570 1570 1570
1514 1512 1515 1516 1517 1519 1519 1523 1525 1529 1531 1533 1536 1538 1541 1543 1545 1548 1550 1551 1553 1555 1556 1558 1560 1561 1562 1564 1565 1566 1567 1568 1568 1569 1569 1570 1570 1570 1570 1570 1570 1570 1570 1570 1569 1569 1569 1569 1569
1511 1514 1515 1516 1516 1516 1516 1518 1523 1527 1529 1531 1534 1537 1539 1542 1544 1546 1548 1550 1552 1554 1555 1557 1559 1560 1562 1563 1565 1566 1566 1567 1568 1569 1569 1569 1569 1569 1569 1569 1569 1569 1569 1569 1569 1568 1568 1568 1567
1516 1513 1514 1515 1514 1514 1514 1515 1520 1525 1527 1529 1532 1535 1538 1540 1542 1544 1546 1549 1550 1552 1554 1556 1558 1559 1561 1562 1564 1565 1566 1567 1567 1568 1568 1568 1569 1568 1569 1569 1568 1569 1568 1568 1567 1566 1566 1566 1566
1510 1512 1514 1513 1512 1512 1513 1513 1516 1521 1524 1526 1530 1532 1535 1537 1540 1542 1544 1546 1549 1550 1552 1554 1556 1558 1559 1561 1563 1564 1565 1566 1567 1567 1567 1567 1567 1567 1567 1568 1567 1567 1567 1567 1567 1566 1566 1566 1565
1512 1514 1513 1511 1511 1513 1511 1512 1512 1517 1521 1523 1525 1528 1531 1534 1537 1540 1542 1544 1546 1548 1550 1552 1554 1556 1558 1559 1561 1562 1564 1565 1566 1566 1565 1566 1566 1566 1567 1566 1566 1566 1566 1565 1565 1564 1565 1565 1564
1511 1512 1512 1513 1512 1510 1511 1512 1511 1513 1517 1521 1523 1525 1528 1530 1533 1536 1538 1541 1543 1545 1547 1550 1552 1554 1556 1558 1560 1561 1562 1563 1564 1564 1564 1564 1564 1564 1565 1565 1565 1565 1565 1565 1563 1563 1563 1563 1563
1512 1507 1510 1512 1514 1513 1513 1519 1509 1508 1512 1516 1519 1522 1524 1527 1530 1532 1535 1537 1540 1543 1545 1547 1549 1551 1553 1555 1557 1559 1560 1561 1562 1562 1562 1562 1562 1562 1563 1562 1562 1562 1563 1562 1562 1562 1561 1561 1562
1508 1507 1508 1509 1511 1513 1510 1515 1508 1504 1510 1511 1514 1517 1520 1523 1526 1529 1531 1534 1537 1540 1542 1545 1547 1549 1551 1552 1554 1556 1558 1559 1560 1560 1560 1560 1560 1560 1560 1560 1560 1560 1561 1560 1560 1559 1559 1560 1560
1507 1509 1509 1508 1507 1522 1513 1515 1513 1503 1507 1508 1511 1514 1517 1520 1523 1526 1528 1531 1534 1537 1540 1542 1544 1545 1548 1549 1551 1553 1555 1556 1557 1557 1558 1558 1558 1558 1558 1558 1558 1558 1558 1558 1557 1557 1557 1557 1557
1507 1512 1520 1523 1522 1520 1508 1514 1511 1504 1506 1508 1510 1512 1515 1517 1520 1523 1526 1528 1531 1534 1536 1539 1541 1543 1545 1547 1549 1550 1552 1553 1553 1554 1555 1555 1556 1557 1556 1556 1555 1555 1555 1555 1555 1554 1554 1554 1554
1504 1505 1521 1530 1525 1514 1511 1513 1505 1503 1507 1509 1510 1511 1513 1515 1518 1520 1523 1526 1529 1531 1534 1536 1538 1540 1542 1544 1545 1547 1548 1550 1551 1551 1552 1553 1553 1554 1553 1552 1552 1552 1552 1552 1552 1552 1551 1551 1551
1503 1503 1499 1508 1511 1516 1510 1506 1503 1503 1506 1508 1509 1510 1512 1514 1516 1519 1521 1524 1527 1529 1531 1534 1536 1537 1539 1541 1542 1544 1545 1547 1548 1548 1549 1550 1550 1550 1550 1549 1549 1549 1549 1549 1549 1549 1548 1548 1548
1499 1498 1503 1508 1524 1525 1515 1509 1506 1505 1505 1507 1508 1510 1512 1514 1516 1518 1521 1522 1525 1528 1529 1532 1533 1535 1537 1538 1540 1542 1542 1544 1545 1545 1546 1546 1546 1546 1546 1546 1546 1546 1546 1546 1546 1546 1546 1545 1545
1503 1504 1503 1503 1506 1519 1521 1512 1498 1502 1504 1506 1508 1511 1513 1514 1515 1518 1520 1521 1524 1526 1528 1529 1531 1532 1534 1536 1537 1539 1540 1541 1542 1542 1542 1542 1543 1543 1542 1542 1542 1543 1543 1543 1542 1543 1542 1542 1542
1496 1497 1500 1509 1512 1508 1511 1509 1497 1501 1504 1507 1509 1511 1513 1514 1516 1517 1519 1521 1523 1525 1526 1528 1529 1531 1532 1534 1535 1536 1537 1538 1538 1539 1539 1539 1539 1539 1539 1539 1539 1539 1539 1539 1539 1539 1539 1538 1538